星链-1749 (STARLINK-1749 )

导读

STARLINK-1749是美国SpaceX公司星链(Starlink)卫星互联网星座中的一颗卫星,于2020年10月6日发射入轨,运行在近地轨道。星链项目旨在为全球提供高速宽带互联网服务,尤其覆盖偏远、网络匮乏地区。作为星链大规模组网的早期成员,该卫星承担着构建低轨卫星通信网络的任务,助力SpaceX逐步实现全球全域互联的目标,推动卫星互联网技术商业化落地。

基本信息
目录编号:
46589
目录名称:
STARLINK-1749
国际标识:
2020-070BK
轨道中心:
EARTH
卫星名称:
星链-1749
卫星全名:
星链-1749 (STARLINK-1749 )
卫星状态:
已陨落 最后检测时间 2025-03-20
发射日期:
2020-10-06 UTC
国别 :
美国 (US)
星等 :
--
轨道信息
数据来源 国际轨道数据
星历时间: 2025-03-20T06:39:59+0800
轨道信息已过期455天
半长轴: 6528.918km
偏心率: 0.0007487
轨道倾角: 53.019°
近地点辐角 259.303°
升交点赤经 245.773°
平近点角 239.248°
近地点: 145.894km
远地点: 155.672km
周期: 87.503分钟
每日圈数: 16.456633
详细信息
固有亮度:
5
最大亮度:
2.5
卫星平台:
Starlink V1.0
覆盖范围:
全球
运营商:
太空探索技术公司
运营商所在国:
美国
制造商(研发单位):
太空探索技术公司
制造商所在国:
美国
使用方式:
暂无
卫星简介
星链(Starlink)计划是由太空探索技术公司(SpaceX)提出的一个巨型低轨卫星互联网星座项目,计划在2019年至2024年间在太空搭建由约1.2万颗卫星组成的“星链”网络,其中1584颗将部署在地球上空550千米处的近地轨道,并从2020年开始工作。该卫星仍在工作。